Location: Châteauvieux
(47.2310°N, 1.3828°E)
Time: 23:48:34
(UTC+00:00)

Cosmos 1937 Rocket - Pass Details

Date: 15 May 2026
Orbit: 743 x 774 km, 74.0° (Epoch: 9 June)

Event Time Altitude Azimuth Distance (km) Brightness Sun altitude
Rises 22:21:02 0° 342° (NNW) 3,205 8.3 -20.7°
Reaches altitude 10° 22:23:34 10° 350° (N) 2,273 7.1 -20.9°
Maximum altitude 22:28:23 40° 60° (ENE) 1,097 4.3 -21.2°
Enters shadow 22:30:10 30° 103° (ESE) 1,318 4.4 -21.3°
